Home   Weather   Linden   Past weeks

Flag for Guyana Past Weather in Linden, Guyana — Yesterday and Last 2 Weeks

Now
73 °F

Sprinkles. Partly cloudy.


Feels Like: 68 °F
Forecast: 74 / 85 °F
Wind: 5 mph from Northeast

Location: Georgetown/Cheddi Jagan International Airport

Current Time: Jan 19, 2017 at 2:43:56 am

Latest Report: Jan 19, 2017 at 2:00 am


Visibility: 6 mi

Pressure: 29.83 "Hg

Humidity: 100%

Dew Point: 73 °F

Location of LindenLocation

Past Weather in Linden — Graph

°F

Linden Temperature Yesterday

Maximum temperature yesterday: 82 °F (at 4:00 pm)
Minimum temperature yesterday: 73 °F (at 2:00 am)
Average temperature yesterday: 76 °F

High & Low Weather Summary for the Past Weeks

 TemperatureHumidityPressure
High88 °F (Jan 10, 1:00 pm)100% (Jan 4, 1:00 am)30.01 "Hg (Jan 4, 1:00 am)
Low66 °F (Jan 11, 6:00 am)52% (Jan 10, 1:00 pm)29.80 "Hg (Jan 10, 2:00 pm)
Average77 °F88%29.88 "Hg
* Reported Jan 4 1:00 am — Jan 19 1:00 am, Linden, Weather by CustomWeather, © 2017

Note: Actual official high and low records may vary slightly from our data, if they occured in-between our weather recording intervals... More about our weather records

Advertising

Linden Weather History for the Previous 24 Hours

Scroll right to see more
 ConditionsComfort  
Time TempWeatherWind HumidityBarometerVisibility
1:00 am
Thu, Jan 19
73 °FPassing clouds.5 mph100%29.86 "HgN/A
12:00 am75 °FSprinkles. Partly cloudy.5 mph94%29.89 "Hg6 mi
11:00 pm
Wed, Jan 18
75 °FSprinkles. Partly cloudy.5 mph100%29.89 "Hg6 mi
10:00 pm75 °FPartly cloudy.5 mph94%29.89 "HgN/A
9:00 pm75 °FPartly cloudy.5 mph94%29.92 "HgN/A
8:00 pm75 °FPartly cloudy.5 mph94%29.89 "HgN/A
7:00 pm77 °FPartly cloudy.5 mph94%29.86 "HgN/A
6:00 pm79 °FPassing clouds.7 mph84%29.86 "HgN/A
5:00 pm81 °FBroken clouds.5 mph84%29.86 "HgN/A
4:00 pm82 °FPartly sunny.5 mph79%29.83 "HgN/A
3:00 pm81 °FPartly sunny.7 mph89%29.83 "HgN/A
2:00 pm81 °FPartly sunny.2 mph84%29.86 "HgN/A
1:00 pm81 °FBroken clouds.5 mph89%29.89 "HgN/A
12:00 pm79 °FBroken clouds.7 mph89%29.92 "Hg6 mi
11:00 am73 °FBroken clouds.2 mph94%29.95 "HgN/A
10:00 am73 °FRain. Mostly cloudy.5 mph100%29.98 "Hg3 mi
9:00 am73 °FRain. Mostly cloudy.7 mph94%29.98 "Hg2 mi
8:00 am73 °FRain showers. Partly sunny.2 mph100%29.95 "Hg5 mi
7:00 am73 °FPartly sunny.5 mph100%29.89 "Hg6 mi
6:00 am73 °FPassing clouds.5 mph100%29.89 "Hg6 mi
5:00 am73 °FSprinkles. Passing clouds.5 mph100%29.86 "Hg6 mi
2:00 am73 °FPassing clouds.5 mph100%29.86 "Hg6 mi
Weather by CustomWeather, © 2017

See weather overviewHow to use our weather pages